Limon, CO

4:45 AM MDT on April 21, 2018 (GMT -0600)
Limon Municipal

Weather History for KLIC - December, 2013

Change the Weather History Date:

Monday, December 2, 2013

  Actual Average Record
Temperature  
Mean Temperature 40 °F -  
Max Temperature 61 °F - 66 °F (2017)
Min Temperature 19 °F - 0 °F (2004)
Degree Days  
Heating Degree Days 25    
Month to date heating degree days 55  
Cooling Degree Days 0    
Month to date cooling degree days 0  
Moisture  
Dew Point 20 °F    
Average Humidity 54    
Maximum Humidity 88    
Minimum Humidity 19    
Precipitation  
Precipitation 0.00 in - 0.00 in (2018)
Month to date precipitation 0.00  
Year to date precipitation 17.08  
Snow  
Snow 0.00 in - - ()
Snow Depth -    
Sea Level Pressure  
Sea Level Pressure 29.71 in    
Wind  
Wind Speed 5 mph (NW)    
Max Wind Speed 16 mph    
Max Gust Speed 24 mph    
Visibility 10 miles    
Events      
T = Trace of Precipitation, MM = Missing Value Source: NWS Daily Summary

Daily Weather History Graph

Daily Weather History Graph

Search for Another Location

Airport or City:

Astronomy

Dec. 02, 2013 Rise Set
Actual Time 6:56 AM MST 4:31 PM MST
Civil Twilight 6:26 AM MST 5:01 PM MST
Nautical Twilight 5:53 AM MST 5:34 PM MST
Astronomical Twilight 5:21 AM MST 6:07 PM MST
Moon 6:24 AM MST (12/2) 4:36 PM MST (12/2)
Length of Visible Light 10h 34m
Length of Day
9h 35m
Waning Crescent, 0% of the Moon is Illuminated
Dec 2
Waning Crescent
Dec 2
New
Dec 9
First Quarter
Dec 17
Full
Dec 25
Last Quarter

Hourly Weather History & Observations

Time (MST) Temp. Windchill Dew Point Humidity Pressure Visibility Wind Dir Wind Speed Gust Speed Precip Events Conditions
12:55 AM 36.0 °F 31.1 °F 21.9 °F 57% 29.80 in 10.0 mi WNW 5.8 mph - N/A   Clear
1:55 AM 36.0 °F 33.3 °F 23.0 °F 59% 29.81 in 10.0 mi WNW 3.5 mph - N/A   Clear
2:55 AM 27.0 °F - 19.9 °F 75% 29.83 in 10.0 mi Calm Calm - N/A   Clear
3:55 AM 28.0 °F 22.8 °F 21.0 °F 75% 29.83 in 10.0 mi West 4.6 mph - N/A   Clear
4:55 AM 21.9 °F 15.7 °F 18.0 °F 85% 29.89 in 10.0 mi NW 4.6 mph - N/A   Clear
5:55 AM 21.0 °F 13.4 °F 18.0 °F 88% 29.91 in 10.0 mi NNW 5.8 mph - N/A   Clear
6:55 AM 23.0 °F 18.4 °F 19.0 °F 85% 29.89 in 10.0 mi NNW 3.5 mph - N/A   Clear
7:55 AM 32.0 °F - 24.1 °F 73% 29.84 in 10.0 mi Calm Calm - N/A   Clear
8:55 AM 42.1 °F 40.2 °F 25.0 °F 51% 29.80 in 10.0 mi WNW 3.5 mph - N/A   Clear
9:55 AM 51.1 °F - 21.9 °F 32% 29.76 in 10.0 mi West 6.9 mph - N/A   Clear
10:55 AM 55.9 °F - 21.0 °F 26% 29.70 in 10.0 mi Variable 3.5 mph - N/A   Clear
11:55 AM 59.0 °F - 18.0 °F 20% 29.61 in 10.0 mi West 12.7 mph 16.1 mph N/A   Clear
12:55 PM 60.1 °F - 18.0 °F 20% 29.59 in 10.0 mi WNW 6.9 mph - N/A   Clear
1:55 PM 60.1 °F - 17.1 °F 19% 29.58 in 10.0 mi West 10.4 mph - N/A   Clear
2:55 PM 60.1 °F - 17.1 °F 19% 29.60 in 10.0 mi NW 4.6 mph - N/A   Clear
3:55 PM 52.0 °F - 19.9 °F 28% 29.62 in 10.0 mi NNE 6.9 mph - N/A   Partly Cloudy
4:55 PM 48.9 °F - 19.9 °F 32% 29.64 in 10.0 mi SE 11.5 mph - N/A   Clear
5:55 PM 39.0 °F - 19.9 °F 46% 29.69 in 10.0 mi Calm Calm - N/A   Clear
6:55 PM 33.1 °F 27.7 °F 19.9 °F 59% 29.68 in 10.0 mi NNE 5.8 mph - N/A   Clear
7:55 PM 35.1 °F 31.0 °F 21.0 °F 57% 29.62 in 10.0 mi North 4.6 mph - N/A   Clear
8:55 PM 33.1 °F 30.0 °F 21.0 °F 61% 29.60 in 10.0 mi NNW 3.5 mph - N/A   Clear
9:55 PM 32.0 °F 26.4 °F 19.9 °F 61% 29.57 in 10.0 mi NNW 5.8 mph - N/A   Clear
10:55 PM 25.0 °F - 19.0 °F 78% 29.56 in 10.0 mi Calm Calm - N/A   Clear
11:55 PM 21.0 °F - 17.1 °F 85% 29.57 in 10.0 mi Calm Calm - N/A   Clear